Weather History for Albuquerque Double Eagle, NM

Change the Weather History Date:

Tuesday, April 9, 2013

  Actual Average Record
Temperature  
Mean Temperature 42 °F -  
Max Temperature 48 °F - - ()
Min Temperature 35 °F - - ()
Degree Days  
Heating Degree Days 24    
Moisture  
Dew Point 30 °F    
Average Humidity 66    
Maximum Humidity 100    
Minimum Humidity 37    
Precipitation  
Precipitation 0.00 in - - ()
Sea Level Pressure  
Sea Level Pressure 29.63 in    
Wind  
Wind Speed 13 mph (SW)    
Max Wind Speed 23 mph    
Max Gust Speed 29 mph    
Visibility 10 miles    
Events Rain    
T = Trace of Precipitation, MM = Missing Value Source: NWS Daily Summary

Daily Weather History Graph

Daily Weather History Graph

Search for Another Location

Airport:

Trip Planner

Search our weather history database for the weather conditions in past years. The results will help you decide how hot, cold, wet, or windy it might be!

Date:

Astronomy

Apr. 09, 2013 Rise Set
Actual Time 6:42 AM MDT 7:35 PM MDT
Civil Twilight 6:16 AM MDT 8:01 PM MDT
Nautical Twilight 5:46 AM MDT 8:31 PM MDT
Astronomical Twilight 5:14 AM MDT 9:03 PM MDT
Moon 6:05 AM MDT (4/9) 7:13 PM MDT (4/9)
Length of Visible Light 13h 44m
Length of Day
12h 52m
Waning Crescent, 0% of the Moon is Illuminated
Apr 9
Waning Crescent
Apr 10
New
Apr 18
First Quarter
Apr 25
Full
May 2
Last Quarter

Hourly Weather History & Observations

Time (MDT) Temp. Windchill Dew Point Humidity Pressure Visibility Wind Dir Wind Speed Gust Speed Precip Events Conditions
12:15 AM 46.4 °F 41.1 °F 26.6 °F 46% 29.53 in 10.0 mi North 11.5 mph - N/A   Partly Cloudy
12:35 AM 46.4 °F 39.8 °F 26.6 °F 46% 29.53 in 10.0 mi North 16.1 mph 23.0 mph N/A   Clear
12:55 AM 46.4 °F 39.2 °F 26.6 °F 46% 29.51 in 10.0 mi NNW 18.4 mph - N/A   Clear
1:15 AM 46.4 °F 39.8 °F 26.6 °F 46% 29.52 in 10.0 mi North 16.1 mph - N/A   Clear
1:35 AM 44.6 °F 37.4 °F 26.6 °F 49% 29.51 in 10.0 mi NNW 16.1 mph - N/A   Clear
1:55 AM 44.6 °F 37.8 °F 26.6 °F 49% 29.50 in 10.0 mi North 15.0 mph 20.7 mph N/A   Clear
2:35 AM 44.6 °F 37.4 °F 26.6 °F 49% 29.50 in 10.0 mi WNW 16.1 mph - N/A   Clear
2:55 AM 41.0 °F 32.5 °F 32.0 °F 70% 29.49 in 8.0 mi West 17.3 mph 24.2 mph N/A   Scattered Clouds
3:15 AM 42.8 °F 37.5 °F 32.0 °F 66% 29.48 in 10.0 mi WNW 9.2 mph - N/A   Partly Cloudy
3:35 AM 42.8 °F 39.3 °F 32.0 °F 66% 29.47 in 10.0 mi NNW 5.8 mph - N/A   Clear
3:55 AM 44.6 °F 41.4 °F 32.0 °F 61% 29.47 in 10.0 mi East 5.8 mph - N/A   Scattered Clouds
4:15 AM 44.6 °F 41.4 °F 32.0 °F 61% 29.46 in 10.0 mi SSE 5.8 mph - N/A   Partly Cloudy
4:35 AM 46.4 °F 42.9 °F 30.2 °F 53% 29.46 in 10.0 mi SSW 6.9 mph - N/A   Partly Cloudy
4:55 AM 46.4 °F 41.1 °F 28.4 °F 50% 29.47 in 10.0 mi SSW 11.5 mph - N/A   Clear
5:15 AM 46.4 °F 39.5 °F 26.6 °F 46% 29.48 in 10.0 mi SSW 17.3 mph 20.7 mph N/A   Partly Cloudy
5:35 AM 44.6 °F 38.8 °F 28.4 °F 53% 29.49 in 10.0 mi SW 11.5 mph - N/A   Partly Cloudy
6:50 AM 41.0 °F 32.8 °F 32.0 °F 70% 29.53 in 10.0 mi SW 16.1 mph - N/A Rain Light Rain
7:50 AM 39.2 °F 31.2 °F 28.4 °F 65% 29.57 in 10.0 mi SSW 13.8 mph - N/A   Mostly Cloudy
8:50 AM 41.0 °F 31.1 °F 24.8 °F 53% 29.58 in 10.0 mi SW 23.0 mph 27.6 mph N/A   Mostly Cloudy
9:50 AM 41.0 °F 31.9 °F 26.6 °F 57% 29.62 in 10.0 mi SW 19.6 mph - N/A   Mostly Cloudy
10:50 AM 41.0 °F 32.5 °F 24.8 °F 53% 29.65 in 10.0 mi SSW 17.3 mph 28.8 mph N/A   Overcast
11:50 AM 37.4 °F 28.2 °F 30.2 °F 75% 29.67 in 8.0 mi SSW 16.1 mph 19.6 mph N/A Rain Light Rain
12:50 PM 48.2 °F - 23.0 °F 37% 29.66 in 10.0 mi SW 13.8 mph 19.6 mph N/A   Mostly Cloudy
1:50 PM 44.6 °F 40.2 °F 24.8 °F 46% 29.68 in 10.0 mi SSE 8.1 mph - N/A   Mostly Cloudy
2:50 PM 37.4 °F 28.9 °F 30.2 °F 75% 29.71 in 10.0 mi SSW 13.8 mph 26.5 mph N/A Rain Light Rain
3:50 PM 41.0 °F 31.9 °F 32.0 °F 70% 29.70 in 10.0 mi SE 19.6 mph - N/A   Mostly Cloudy
4:50 PM 39.2 °F 29.6 °F 32.0 °F 75% 29.71 in 10.0 mi ESE 19.6 mph - N/A   Mostly Cloudy
5:50 PM 39.2 °F 30.2 °F 32.0 °F 75% 29.73 in 10.0 mi SSE 17.3 mph - N/A   Overcast
6:50 PM 41.0 °F 34.7 °F 30.2 °F 65% 29.77 in 10.0 mi South 10.4 mph - N/A   Overcast
7:50 PM 37.4 °F 28.5 °F 32.0 °F 81% 29.80 in 10.0 mi South 15.0 mph - N/A   Mostly Cloudy
8:50 PM 37.4 °F 29.8 °F 35.6 °F 93% 29.82 in 10.0 mi SSE 11.5 mph - N/A   Clear
9:50 PM 35.6 °F 30.7 °F 35.6 °F 100% 29.84 in 10.0 mi South 5.8 mph - N/A   Mostly Cloudy
10:15 PM 35.6 °F 29.2 °F 35.6 °F 100% 29.85 in 10.0 mi South 8.1 mph - N/A   Overcast
10:35 PM 35.6 °F 31.7 °F 35.6 °F 100% 29.85 in 10.0 mi SSW 4.6 mph - N/A   Mostly Cloudy
10:55 PM 35.6 °F - 35.6 °F 100% 29.85 in 10.0 mi Calm Calm - N/A   Partly Cloudy
11:15 PM 35.6 °F 31.7 °F 35.6 °F 100% 29.85 in 10.0 mi WSW 4.6 mph - N/A   Mostly Cloudy
11:35 PM 35.6 °F 31.7 °F 32.0 °F 87% 29.86 in 10.0 mi North 4.6 mph - N/A   Mostly Cloudy
11:55 PM 35.6 °F 31.7 °F 32.0 °F 87% 29.86 in 10.0 mi North 4.6 mph - N/A   Mostly Cloudy